Meteo pe oră la Dzielec

Astăzi, 7 Martie, Duminică

Timp Temperatura Precipitaţii Vânt Presiune Umiditate
00:00 -4°C° 0 mm 3 m/s 745 mmHg 70%
01:00 -2°C° 0 mm 2 m/s 745 mmHg 65%
02:00 -2°C° 0 mm 3 m/s 744 mmHg 64%
03:00 -4°C° 0 mm 3 m/s 744 mmHg 63%
04:00 -4°C° 0 mm 3 m/s 743 mmHg 63%
05:00 -4°C° 0 mm 3 m/s 743 mmHg 62%
06:00 -4°C° 0 mm 3 m/s 743 mmHg 62%
07:00 -4°C° 0 mm 3 m/s 743 mmHg 62%
08:00 -2°C° 0 mm 4 m/s 742 mmHg 56%
09:00 -1°C° 0 mm 4 m/s 742 mmHg 51%
10:00 +1°C° 0 mm 4 m/s 741 mmHg 46%
11:00 +3°C° 0 mm 4 m/s 741 mmHg 44%
12:00 +4°C° 0 mm 4 m/s 740 mmHg 42%
13:00 +4°C° 0 mm 4 m/s 739 mmHg 40%
14:00 +4°C° 0 mm 4 m/s 739 mmHg 44%
15:00 +4°C° 0 mm 3 m/s 738 mmHg 47%
16:00 +4°C° 0 mm 3 m/s 738 mmHg 50%
17:00 +2°C° 0 mm 3 m/s 738 mmHg 55%
18:00 +2°C° 0 mm 2 m/s 737 mmHg 60%
19:00 -1°C° 0 mm 2 m/s 737 mmHg 66%
20:00 -1°C° 0 mm 2 m/s 737 mmHg 67%
21:00 -2°C° 0 mm 2 m/s 737 mmHg 69%
22:00 -2°C° 0 mm 2 m/s 737 mmHg 70%
23:00 -2°C° 0 mm 2 m/s 737 mmHg 73%

Mâine, 8 Martie, Luni

Timp Temperatura Precipitaţii Vânt Presiune Umiditate
00:00 -2°C° 0 mm 2 m/s 736 mmHg 76%
01:00 -2°C° 0 mm 2 m/s 736 mmHg 79%
02:00 -2°C° 0 mm 2 m/s 736 mmHg 81%
03:00 -2°C° 0 mm 3 m/s 736 mmHg 83%
04:00 -2°C° 0 mm 3 m/s 736 mmHg 84%
05:00 -2°C° 0.1 mm 3 m/s 736 mmHg 86%
06:00 -2°C° 0.1 mm 3 m/s 736 mmHg 87%
07:00 -2°C° 0.1 mm 3 m/s 736 mmHg 88%
08:00 -3°C° 0.4 mm 4 m/s 736 mmHg 86%
09:00 -2°C° 0.4 mm 4 m/s 737 mmHg 84%
10:00 -2°C° 0.4 mm 4 m/s 737 mmHg 82%
11:00 -1°C° 0.1 mm 4 m/s 737 mmHg 73%
12:00 -1°C° 0.1 mm 4 m/s 738 mmHg 63%
13:00 0°C° 0.1 mm 4 m/s 738 mmHg 54%
14:00 0°C° 0 mm 4 m/s 738 mmHg 56%
15:00 -1°C° 0 mm 4 m/s 738 mmHg 57%
16:00 -1°C° 0 mm 4 m/s 738 mmHg 58%
17:00 -1°C° 0 mm 3 m/s 739 mmHg 64%
18:00 -2°C° 0 mm 3 m/s 739 mmHg 70%
19:00 -3°C° 0 mm 2 m/s 740 mmHg 76%
20:00 -3°C° 0 mm 2 m/s 740 mmHg 77%
21:00 -2°C° 0 mm 1 m/s 740 mmHg 78%
22:00 -2°C° 0 mm 1 m/s 740 mmHg 79%
23:00 -2°C° 0 mm 1 m/s 740 mmHg 80%

Poimâine, 9 Martie, Marţi

Timp Temperatura Precipitaţii Vânt Presiune Umiditate
00:00 -2°C° 0 mm 1 m/s 740 mmHg 80%
01:00 -2°C° 0 mm 1 m/s 741 mmHg 81%
02:00 -2°C° 0 mm 1 m/s 740 mmHg 82%
03:00 -2°C° 0 mm 1 m/s 740 mmHg 82%
04:00 -3°C° 0 mm 0 m/s 740 mmHg 82%
05:00 -3°C° 0 mm 0 m/s 740 mmHg 81%
06:00 -3°C° 0 mm 0 m/s 741 mmHg 79%
07:00 -3°C° 0 mm 0 m/s 741 mmHg 78%
08:00 -1°C° 0 mm 0 m/s 741 mmHg 71%
09:00 0°C° 0 mm 0 m/s 741 mmHg 64%
10:00 +1°C° 0 mm 0 m/s 741 mmHg 57%
11:00 +1°C° 0 mm 0 m/s 741 mmHg 54%
12:00 +2°C° 0 mm 0 m/s 741 mmHg 52%
13:00 +2°C° 0 mm 0 m/s 740 mmHg 49%
14:00 +2°C° 0 mm 0 m/s 740 mmHg 51%
15:00 +2°C° 0 mm 1 m/s 740 mmHg 53%
16:00 +2°C° 0 mm 1 m/s 739 mmHg 54%
17:00 +1°C° 0 mm 1 m/s 739 mmHg 60%
18:00 0°C° 0 mm 1 m/s 739 mmHg 65%
19:00 -1°C° 0 mm 1 m/s 740 mmHg 71%
20:00 -1°C° 0 mm 1 m/s 740 mmHg 72%
21:00 -1°C° 0 mm 1 m/s 740 mmHg 74%
22:00 -1°C° 0 mm 1 m/s 740 mmHg 75%
23:00 -2°C° 0 mm 0 m/s 740 mmHg 75%

10 Martie, Miercuri

Timp Temperatura Precipitaţii Vânt Presiune Umiditate
00:00 -2°C° 0 mm 0 m/s 739 mmHg 74%
01:00 -2°C° 0 mm 0 m/s 739 mmHg 73%
02:00 -2°C° 0 mm 0 m/s 739 mmHg 73%
03:00 -2°C° 0 mm 0 m/s 739 mmHg 73%
04:00 -2°C° 0 mm 0 m/s 739 mmHg 73%
05:00 -2°C° 0 mm 0 m/s 739 mmHg 73%
06:00 -2°C° 0 mm 0 m/s 739 mmHg 73%
07:00 -1°C° 0 mm 1 m/s 739 mmHg 72%
08:00 0°C° 0 mm 1 m/s 740 mmHg 66%
09:00 +1°C° 0 mm 1 m/s 740 mmHg 59%
10:00 +1°C° 0 mm 2 m/s 740 mmHg 53%
11:00 +2°C° 0 mm 2 m/s 740 mmHg 51%
12:00 +2°C° 0 mm 2 m/s 740 mmHg 49%
13:00 +2°C° 0 mm 2 m/s 740 mmHg 47%
14:00 +2°C° 0 mm 2 m/s 740 mmHg 49%
15:00 +2°C° 0 mm 2 m/s 740 mmHg 50%
16:00 +2°C° 0 mm 2 m/s 740 mmHg 52%
17:00 +1°C° 0 mm 2 m/s 740 mmHg 57%
18:00 0°C° 0 mm 1 m/s 741 mmHg 62%
19:00 -1°C° 0 mm 1 m/s 741 mmHg 67%
20:00 -2°C° 0 mm 0 m/s 741 mmHg 67%
21:00 -2°C° 0 mm 0 m/s 742 mmHg 67%
22:00 -2°C° 0 mm 0 m/s 742 mmHg 67%
23:00 -2°C° 0 mm 0 m/s 742 mmHg 67%

11 Martie, Joi

Timp Temperatura Precipitaţii Vânt Presiune Umiditate
00:00 -1°C° 0 mm 1 m/s 742 mmHg 67%
01:00 -1°C° 0 mm 1 m/s 742 mmHg 67%
02:00 -1°C° 0 mm 1 m/s 741 mmHg 68%
03:00 -1°C° 0 mm 1 m/s 741 mmHg 68%
04:00 -3°C° 0 mm 2 m/s 741 mmHg 68%
05:00 -3°C° 0 mm 2 m/s 741 mmHg 66%
06:00 -3°C° 0 mm 2 m/s 740 mmHg 65%
07:00 -4°C° 0 mm 3 m/s 740 mmHg 63%
08:00 -1°C° 0 mm 3 m/s 740 mmHg 60%
09:00 -1°C° 0 mm 4 m/s 740 mmHg 56%
10:00 0°C° 0 mm 5 m/s 739 mmHg 52%
11:00 +1°C° 0 mm 5 m/s 739 mmHg 52%
12:00 +1°C° 0 mm 6 m/s 739 mmHg 52%
13:00 +2°C° 0 mm 6 m/s 738 mmHg 52%
14:00 +1°C° 0 mm 6 m/s 738 mmHg 62%
15:00 0°C° 0 mm 7 m/s 737 mmHg 71%
16:00 -1°C° 0 mm 7 m/s 736 mmHg 80%
17:00 -1°C° 0.2 mm 7 m/s 736 mmHg 81%
18:00 -1°C° 0.2 mm 8 m/s 736 mmHg 83%
19:00 -1°C° 0.2 mm 8 m/s 735 mmHg 84%
20:00 0°C° 0.2 mm 8 m/s 735 mmHg 85%
21:00 0°C° 0.2 mm 8 m/s 735 mmHg 85%
22:00 0°C° 0.2 mm 7 m/s 734 mmHg 86%
23:00 0°C° 0.2 mm 7 m/s 734 mmHg 86%

12 Martie, Vineri

Timp Temperatura Precipitaţii Vânt Presiune Umiditate
00:00 0°C° 0.2 mm 7 m/s 734 mmHg 86%
01:00 0°C° 0.2 mm 7 m/s 734 mmHg 86%
02:00 -1°C° 0.5 mm 7 m/s 734 mmHg 87%
03:00 -1°C° 0.5 mm 6 m/s 734 mmHg 89%
04:00 0°C° 0.5 mm 5 m/s 734 mmHg 91%
05:00 0°C° 0.2 mm 5 m/s 734 mmHg 91%
06:00 0°C° 0.2 mm 4 m/s 734 mmHg 91%
07:00 0°C° 0.2 mm 4 m/s 734 mmHg 92%
08:00 +1°C° 0 mm 4 m/s 734 mmHg 89%
09:00 +3°C° 0 mm 4 m/s 735 mmHg 86%
10:00 +4°C° 0 mm 3 m/s 735 mmHg 83%
11:00 +5°C° 0.1 mm 4 m/s 735 mmHg 80%
12:00 +6°C° 0.1 mm 4 m/s 735 mmHg 77%
13:00 +6°C° 0.1 mm 4 m/s 735 mmHg 75%
14:00 +6°C° 0.1 mm 4 m/s 735 mmHg 75%
15:00 +6°C° 0.1 mm 4 m/s 735 mmHg 75%
16:00 +7°C° 0.1 mm 3 m/s 735 mmHg 74%
17:00 +5°C° 0 mm 3 m/s 735 mmHg 79%
18:00 +3°C° 0 mm 3 m/s 735 mmHg 83%
19:00 +3°C° 0 mm 2 m/s 735 mmHg 88%
20:00 +3°C° 0 mm 2 m/s 736 mmHg 88%
21:00 +2°C° 0 mm 2 m/s 736 mmHg 89%
22:00 +1°C° 0 mm 3 m/s 736 mmHg 89%
23:00 +1°C° 0 mm 3 m/s 736 mmHg 90%
Arată mai mult

Formular de consimțământ

Meteoprog și furnizorii noștri de servicii pot stoca și accesa date personale, precum cookies, identificatori de dispozitiv sau alte tehnologii similare pe dispozitivul dumneavoastră și procesa astfel de date pentru a personaliza conținutul și reclamele, dar și pentru a oferi caracteristici de social media și pentru a analiza traficul.

  • Stocarea și/sau accesarea informațiilor pe dispozitivul dumneavoastră

    Cookies, identificatori de dispozitiv sau alte informații pot fi stocate sau accesate pe dispozitiv în scopurile indicate mai sus.

  • Reclame și conținut personalizat, evaluarea reclamelor și a conținutului, informații despre audiențe și dezvoltarea produselor

    Reclamele și conținutul pot fi personalizate pe baza unui profil. Pot fi adăugate date suplimentare pentru a personaliza mai bine reclamele și conținutul. Performanța reclamelor și conținutului poate fi măsurată. Pot fi obținute informații despre utilizatorii care au văzut reclamele și conținutul. Aceste date pot fi utilizate pentru a dezvolta sau îmbunătăți experiența utilizatorilor, sistemele și software-ul.

Dând clic pe ‘Sunt de acord’, permiteți utilizarea cookie-urilor menționate, a identificatorilor de dispozitiv, balizelor web sau altor tehnologii similare. Setările pot fi modificate din browser-ul dispozitivului dumneavoastră.

În anumite scopuri, interesele legitime pot prima asupra consimțământului. Puteți citi mai multe informații în acest sens în Politica privind Confidențialitatea Datelor și Cookie.